Location: Austin
(30.3000°N, 97.7500°W)
Time: 08:38:13
(UTC-05:00)

Daily predictions for brighter satellites

Satellite Brightness Start Highest point End
(mag) Time Altitude Azimuth Time Altitude Azimuth Time Altitude Azimuth
CRYOSAT 2 4.4 20:54:12 10° N 20:59:04 71° E 21:03:56 10° S
Delta 2 Rocket 4.3 20:54:12 10° W 21:01:52 65° S 21:08:17 10° ESE
Cosmos 1766 3.6 20:58:53 10° N 21:02:37 45° E 21:06:20 10° SSE
SPOT 3 Rocket 3.7 20:57:56 10° SSE 21:02:58 58° ENE 21:08:04 10° N
OAO 2 Rocket 4.2 21:00:50 10° SSW 21:04:56 27° SSE 21:09:03 10° E
SeaSat 1 4.0 21:02:24 10° ENE 21:05:04 15° ESE 21:07:43 10° SE
Cosmos 990 Rocket 4.0 21:00:40 10° NNW 21:05:57 78° ENE 21:11:09 10° SSE
Cosmos 1805 3.5 21:05:04 10° N 21:08:52 49° E 21:12:38 10° SSE
ADEOS Rocket 4.2 21:05:20 10° NE 21:10:21 23° E 21:14:58 10° SE
Cosmos 2366 rocket 4.1 21:05:16 10° S 21:11:33 69° E 21:17:52 10° N
Unknown 4.1 21:12:51 10° NNW 21:16:09 37° NE 21:19:04 12° ESE
Cosmos 1707 4.2 21:14:09 10° SE 21:16:56 19° E 21:19:43 10° NE
Meteor 1-22 Rocket 4.0 21:13:30 10° N 21:18:48 75° E 21:24:05 10° SSE
SJ-11-01 4.3 21:14:21 10° SSE 21:19:03 79° ENE 21:23:46 10° N
Unknown 4.5 21:15:45 10° NNW 21:19:14 33° NE 21:22:20 12° ESE
FREGAT/IRIS 4.2 21:17:15 10° SSW 21:19:49 31° W 21:22:24 10° NNW
USA 186 2.0 21:17:35 10° S 21:20:56 82° W 21:24:25 10° NNW
Unknown 4.4 21:18:18 10° NNW 21:21:51 36° NE 21:24:53 13° ESE
Cosmos 1607 4.3 21:16:51 10° S 21:22:43 43° ESE 21:28:32 10° NE
Cosmos 2297 4.3 21:17:54 10° SSE 21:23:01 36° ESE 21:28:09 10° NE
Meteor 2-17 Rocket 4.4 21:17:05 10° S 21:23:09 86° E 21:29:13 10° N
ARGOS 3.8 21:18:45 10° SE 21:23:44 40° ENE 21:28:45 10° N
Unknown 4.4 21:24:20 10° NNW 21:28:16 40° NE 21:31:21 15° ESE
Unknown 4.4 21:24:24 10° NNW 21:28:19 40° NE 21:31:23 15° ESE
Resurs 01 Rocket 2.5 21:25:54 13° SE 21:29:15 33° ENE 21:33:13 10° N
Cosmos 2082 Rocket 3.7 21:25:25 10° NNE 21:29:32 20° ENE 21:32:57 12° ESE
Unknown 4.3 21:26:10 10° NNW 21:30:08 42° NE 21:33:07 16° ESE
Okean 1-7 Rocket 4.4 21:27:37 12° SSE 21:31:09 31° E 21:35:02 10° NNE
Unknown 4.3 21:27:51 10° NNW 21:31:50 44° NE 21:34:44 17° ESE
Unknown 4.1 21:30:16 10° NNW 21:34:10 45° NE 21:36:53 18° ESE
SJ 16-02 1.4 21:33:32 10° NNW 21:37:55 80° WSW 21:42:06 11° S
Unknown 3.5 21:38:06 10° NW 21:41:50 61° NE 21:43:58 23° ESE
Unknown 3.9 21:37:50 10° NNW 21:41:54 56° NE 21:44:25 22° ESE
Unknown 3.9 21:39:10 10° NW 21:43:15 58° NE 21:45:42 22° ESE
Unknown 3.8 21:40:39 10° NW 21:44:39 59° NE 21:47:00 23° ESE
MTI 3.6 21:43:07 10° NNE 21:46:11 61° E 21:48:28 17° S
Unknown 3.7 21:42:44 10° NW 21:46:51 64° NE 21:49:10 24° ESE
Unknown 3.7 21:44:55 10° NW 21:49:02 69° NE 21:51:15 26° SE
Unknown 3.5 21:45:10 10° NW 21:49:04 69° NE 21:51:06 27° SE
Starlink (trailer) 3.7 21:46:09 10° NW 21:50:18 70° NE 21:52:29 26° SE
CZ-2C R/B 4.0 21:48:13 20° SE 21:51:33 37° ENE 21:56:50 10° N
SL-08 RB Rocket 3.9 21:48:51 21° SE 21:51:49 55° ENE 21:56:20 10° N
Falcon 9 debris 3.1 21:49:08 10° NW 21:52:37 79° SW 21:54:07 31° SE
Cosmos 1821 Rocket 4.1 21:47:45 11° SSE 21:53:23 52° E 21:59:16 10° NNE
Unknown 3.6 21:49:40 10° NW 21:53:49 76° NE 21:55:52 29° SE
Genesis I 4.2 21:50:35 10° N 21:54:11 33° ENE 21:55:35 25° E
Unknown 3.6 21:50:57 10° NW 21:55:07 79° NE 21:57:07 29° SE
Unknown 3.5 21:51:16 10° NW 21:55:17 80° NE 21:57:09 30° SE
Unknown 3.5 21:55:31 10° NW 21:59:39 89° NE 22:01:30 32° SE
Unknown 3.7 21:56:33 10° NW 22:00:50 88° NE 22:02:48 32° SE
Cosmos 405 Rocket 3.3 21:57:28 10° NNW 22:01:27 60° W 22:04:33 16° S
Unknown 3.4 21:58:14 10° NW 22:01:40 60° SW 22:02:52 35° SSE
Unknown 3.4 21:59:04 10° NW 22:02:57 88° SW 22:04:25 37° SE
Unknown 3.6 21:59:15 10° NW 22:03:25 85° SW 22:05:08 35° SE
Resurs 1-3 3.8 22:00:58 17° S 22:04:15 68° W 22:08:38 10° NNW
Unknown 3.6 22:02:00 10° NW 22:06:07 79° SW 22:07:42 36° SSE
Unknown 3.7 22:04:00 10° NW 22:08:20 79° SW 22:10:01 36° SSE
Unknown 3.6 22:04:23 10° NW 22:08:29 74° SW 22:09:57 38° SSE
Cosmos 1833 Rocket 2.7 22:03:15 10° NNW 22:08:52 66° ENE 22:11:38 30° SE
Gblst 52 Del rocket 4.3 22:03:48 10° NW 22:09:17 67° NE 22:12:12 30° ESE
Cosmos 1125 Rocket 3.8 22:05:08 10° N 22:10:10 49° ENE 22:12:08 33° SE
GPS 2-05 Rocket1 4.4 22:08:45 10° W 22:10:56 20° SW 22:10:56 20° SW
Unknown 3.7 22:07:22 10° NW 22:11:28 68° SW 22:12:49 39° SSE
Unknown 3.9 22:08:09 10° NW 22:12:31 68° SW 22:14:06 37° SSE
GPS 2-04 Rocket1 3.7 22:08:47 10° W 22:12:34 44° N 22:15:32 14° ENE
Unknown 3.7 22:09:06 10° NW 22:13:10 65° SW 22:14:27 40° SSE
COSMOS 2406 4.4 22:08:15 10° NW 22:13:27 38° WSW 22:18:21 12° S
Unknown 4.0 22:12:04 10° WNW 22:15:23 40° SW 22:16:07 35° SSW
H-2A R/B 2.5 22:11:43 16° S 22:15:47 59° W 22:21:02 10° NNW
Cosmos 1470 2.8 22:13:02 10° N 22:17:00 78° W 22:18:32 36° S
Unknown 3.9 22:12:57 10° NW 22:17:32 74° SW 22:19:03 41° SSE
Unknown 3.9 22:13:48 10° NW 22:17:50 57° SW 22:18:56 41° S
H-2A ROCKET BODY 4.2 21:35:40 10° WSW 22:18:49 66° S 22:24:23 20° E
Unknown 3.9 22:15:04 10° NW 22:19:08 59° SW 22:20:16 42° S
GPS 2-17 Rocket1 4.5 22:15:44 10° SW 22:18:27 21° SSW 22:18:27 21° SSW
Cosmos 783 Rocket 4.4 22:14:37 14° S 22:19:12 76° ESE 22:24:30 10° NNE
ERS-1 Rocket 4.2 22:18:21 24° E 22:19:13 25° ENE 22:23:17 10° NNE
Unknown 4.0 22:15:45 10° NW 22:19:46 55° SW 22:20:49 41° S
Unknown 4.0 22:16:08 10° NW 22:19:55 49° SW 22:20:48 40° S
Cosmos 1934 Rocket 4.0 22:16:58 28° SSE 22:20:04 56° E 22:26:06 10° NNE
FALCON 9 DEB 4.3 22:18:26 10° WNW 22:21:39 33° SW 22:22:10 32° SSW
Unknown 4.1 22:17:49 10° NW 22:21:50 51° SW 22:22:49 41° S
Cosmos 1758 3.9 22:19:07 10° NNW 22:23:00 53° W 22:24:49 28° SSW
EO 1 Del DPAF 3.0 22:20:29 10° NNE 22:24:16 80° ESE 22:25:02 54° S
Cosmos 1953 2.2 22:20:24 10° N 22:24:28 84° E 22:25:23 53° SSE
DMSP B5D2-2 4.3 22:21:53 10° N 22:27:06 68° WNW 22:32:06 11° SSW
Cosmos 2058 Rocket 3.1 22:24:23 10° N 22:28:41 57° E 22:29:11 53° ESE
Unknown 4.3 22:25:46 10° WNW 22:29:39 41° SW 22:30:21 38° SSW
Unknown 4.4 22:26:55 10° WNW 22:30:48 40° SW 22:31:27 37° SSW
Unknown 4.4 22:28:00 10° WNW 22:31:57 40° SW 22:32:40 37° SSW
Cosmos 2228 3.0 22:28:02 10° N 22:32:20 78° W 22:33:26 49° S
Unknown 4.4 22:29:00 10° WNW 22:32:53 40° SW 22:33:30 37° SSW
Unknown 4.5 22:29:34 10° WNW 22:33:24 38° SW 22:33:59 35° SSW
Cosmos 405 3.8 22:32:15 33° SW 22:33:25 49° W 22:36:51 10° N
Unknown 4.3 22:30:11 10° WNW 22:34:04 41° SW 22:34:36 39° SSW
Unknown 4.5 22:32:02 10° NW 22:36:41 51° SW 22:37:43 43° SSW
Atlas Centaur 2 2.9 22:30:09 10° W 22:38:31 69° SSW 22:41:27 40° SE
Cosmos 773 Rocket 4.0 22:41:20 55° SE 22:41:54 59° ESE 22:47:03 10° NNE
SeaSat 1 3.2 22:37:57 10° NNE 22:42:44 52° WNW 22:47:29 10° SW
Cosmos 1674 4.0 22:44:12 29° NE 22:44:12 29° NE 22:46:22 10° NNE
ATLAS 3B CENTAUR R/B 3.4 22:37:43 10° SW 22:46:23 34° S 22:46:23 34° S
Cosmos 1726 Rocket 4.3 22:42:53 10° NNW 22:47:04 48° W 22:48:11 38° SW
CZ-2C R/B 2.6 22:43:19 10° NNE 22:48:50 89° WNW 22:50:45 42° SSW
OAO 2 Rocket 3.1 22:44:28 10° WSW 22:49:24 89° N 22:50:38 51° ENE
Cosmos 1943 Rocket 2.3 22:49:32 52° ESE 22:49:32 52° ESE 22:54:54 10° NNE
Palapa 6 Rocket 4.3 22:43:55 10° WSW 22:50:34 43° S 22:50:38 43° S
ADEOS Rocket 4.2 22:49:45 10° N 22:56:02 43° WNW 23:01:42 10° SW
Cosmos 2369 Rocket 2.1 22:57:46 60° ESE 22:57:46 60° ESE 23:03:16 10° NNE
Meteor 2-5 Rocket 3.8 22:56:19 44° SSW 22:58:18 82° W 23:04:14 10° N
Thor Agena Rocket 3.7 22:55:01 10° N 23:00:09 71° WNW 23:01:41 45° SW
Delta 2 Rocket 4.3 22:53:51 10° W 23:00:16 44° SSW 23:00:21 44° SSW
Cosmos 1726 3.8 22:58:21 10° N 23:00:15 27° NNE 23:00:15 27° NNE
SPOT 1/Viking Rocket 3.5 23:02:08 67° E 23:02:16 67° ENE 23:07:22 10° N
Resurs 01 Rocket 4.1 23:03:28 12° SW 23:05:43 16° W 23:08:28 10° WNW
Cosmos 1602 Rocket 3.8 23:07:32 68° NNW 23:07:32 68° NNW 23:11:24 10° N
Cosmos 1538 Rocket 3.9 23:10:00 76° SSW 23:10:26 86° WNW 23:15:49 10° NNE
Cosmos 2082 Rocket 3.0 23:08:27 10° NW 23:13:43 43° WSW 23:14:49 38° SW
Landsat 7 3.9 23:17:10 73° NNW 23:17:10 73° NNW 23:21:31 10° NNW
Cosmos 1153 Rocket 4.3 23:18:21 71° ESE 23:18:40 73° E 23:24:50 10° N
CARTOSAT-1 4.4 23:20:07 45° N 23:20:07 45° N 23:23:14 10° N
Cosmos 1605 Rocket 4.4 23:23:42 43° SW 23:25:36 61° W 23:31:52 10° N
Cosmos 2173 Rocket 4.5 23:31:19 47° ENE 23:31:19 47° ENE 23:36:39 10° NNE
Meteor 2-10 4.2 23:25:49 10° NNW 23:30:51 68° W 23:30:51 68° W
SPOT 5 3.3 23:36:09 65° WNW 23:36:09 65° WNW 23:40:59 10° NNW
Terra 2.7 23:46:13 47° NNW 23:46:13 47° NNW 23:49:37 10° NNW
ATLAS CENTAUR R/B 4.3 23:58:33 13° NE 23:58:33 13° NE 23:59:03 10° NE
